Change the Weather History Date:

Saturday, January 25, 2014

  Actual Average Record
Temperature  
Mean Temperature 17 °F 18 °F  
Max Temperature 20 °F 29 °F 54 °F (2010)
Min Temperature 13 °F 7 °F -23 °F (2004)
Degree Days  
Heating Degree Days 48 47  
Month to date heating degree days 1192 1178  
Since 1 July heating degree days 4131 4116  
Cooling Degree Days 0 0  
Month to date cooling degree days 0 0  
Year to date cooling degree days 0 0  
Moisture  
Dew Point 12 °F    
Average Humidity 67    
Maximum Humidity 84    
Minimum Humidity 49    
Precipitation  
Precipitation 0.02 in 0.10 in 1.28 in (2010)
Month to date precipitation 1.93 2.33  
Year to date precipitation 1.93 2.33  
Sea Level Pressure  
Sea Level Pressure 29.50 in    
Wind  
Wind Speed 9 mph (SSW)    
Max Wind Speed 21 mph    
Max Gust Speed 28 mph    
Visibility 4 miles    
Events Fog , Snow    
T = Trace of Precipitation, MM = Missing Value Source: NWS Daily Summary

Daily Weather History Graph

Daily Weather History Graph

Search for Another Location

Airport or City:

Trip Planner

Search our weather history database for the weather conditions in past years. The results will help you decide how hot, cold, wet, or windy it might be!

Date:

Astronomy

Jan. 25, 2014 Rise Set
Actual Time 7:17 AM EST 4:56 PM EST
Civil Twilight 6:46 AM EST 5:27 PM EST
Nautical Twilight 6:11 AM EST 6:02 PM EST
Astronomical Twilight 5:37 AM EST 6:36 PM EST
Moon 1:45 AM EST (1/25) 11:55 AM EST (1/25)
Length of Visible Light 10h 41m
Length of Day
9h 39m
Waning Crescent, 34% of the Moon is Illuminated
Jan 25
Waning Crescent
Jan 30
New
Feb 6
First Quarter
Feb 14
Full
Feb 22
Last Quarter

Hourly Weather History & Observations

Time (EST) Temp. Windchill Dew Point Humidity Pressure Visibility Wind Dir Wind Speed Gust Speed Precip Events Conditions
12:53 AM 15.1 °F -1.6 °F -0.0 °F 51% 29.87 in 10.0 mi South 18.4 mph 27.6 mph N/A   Partly Cloudy
1:53 AM 15.1 °F -1.1 °F -0.0 °F 51% 29.86 in 10.0 mi South 17.3 mph 25.3 mph N/A   Clear
2:53 AM 15.1 °F 0.5 °F -0.0 °F 51% 29.83 in 10.0 mi South 13.8 mph 23.0 mph N/A   Scattered Clouds
3:53 AM 15.1 °F 2.5 °F -0.0 °F 51% 29.78 in 10.0 mi South 10.4 mph - N/A   Partly Cloudy
4:53 AM 16.0 °F 2.9 °F -0.0 °F 49% 29.74 in 10.0 mi South 11.5 mph 19.6 mph N/A   Mostly Cloudy
5:53 AM 16.0 °F 3.6 °F -0.0 °F 49% 29.71 in 10.0 mi SSW 10.4 mph 18.4 mph N/A   Mostly Cloudy
6:53 AM 17.1 °F 5.0 °F 1.0 °F 50% 29.70 in 10.0 mi SSW 10.4 mph 17.3 mph N/A   Overcast
7:53 AM 18.0 °F 5.4 °F 3.0 °F 52% 29.67 in 9.0 mi South 11.5 mph 24.2 mph N/A   Overcast
8:24 AM 17.6 °F 1.3 °F 5.0 °F 58% 29.61 in 1.8 mi South 19.6 mph 27.6 mph 0.00 in Snow Light Snow
8:32 AM 17.6 °F 5.7 °F 6.8 °F 63% 29.61 in 1.0 mi South 10.4 mph 27.6 mph 0.00 in Snow Light Snow
8:50 AM 15.8 °F 2.7 °F 10.4 °F 79% 29.61 in 0.5 mi South 11.5 mph - 0.00 in Snow Snow
8:53 AM 16.0 °F 2.9 °F 10.0 °F 77% 29.65 in 0.5 mi South 11.5 mph - 0.00 in Snow Snow
9:53 AM 17.1 °F 2.0 °F 10.9 °F 77% 29.63 in 0.5 mi South 16.1 mph - 0.00 in Snow Snow
10:08 AM 17.6 °F 4.3 °F 12.2 °F 79% 29.59 in 0.5 mi South 12.7 mph 20.7 mph 0.00 in Snow Snow
10:53 AM 17.1 °F 4.3 °F 12.0 °F 81% 29.60 in 0.5 mi South 11.5 mph 23.0 mph 0.00 in Snow Snow
11:11 AM 17.6 °F 5.0 °F 12.2 °F 79% 29.55 in 0.2 mi South 11.5 mph 21.9 mph 0.00 in Fog , Snow Snow
11:29 AM 17.6 °F 5.0 °F 12.2 °F 79% 29.53 in 0.5 mi South 11.5 mph - 0.00 in Snow Snow
11:50 AM 17.6 °F 2.7 °F 12.2 °F 79% 29.51 in 1.0 mi South 16.1 mph 23.0 mph 0.00 in Snow Light Snow
11:53 AM 18.0 °F 5.4 °F 12.9 °F 81% 29.54 in 0.8 mi South 11.5 mph 23.0 mph 0.00 in Snow Light Snow
12:16 PM 17.6 °F 3.2 °F 12.2 °F 79% 29.49 in 0.5 mi South 15.0 mph 21.9 mph 0.00 in Snow Snow
12:27 PM 17.6 °F 4.3 °F 12.2 °F 79% 29.48 in 0.5 mi South 12.7 mph 20.7 mph 0.00 in Snow Snow
12:53 PM 18.0 °F 2.6 °F 14.0 °F 84% 29.50 in 0.5 mi South 17.3 mph 25.3 mph 0.00 in Fog , Snow Light Snow
1:12 PM 17.6 °F 4.3 °F 14.0 °F 86% 29.45 in 0.5 mi South 12.7 mph - 0.00 in Fog , Snow Snow
1:53 PM 19.0 °F 8.2 °F 15.1 °F 85% 29.45 in 0.5 mi South 9.2 mph - 0.00 in Fog , Snow Light Snow
2:53 PM 19.0 °F 9.0 °F 15.1 °F 85% 29.44 in 0.5 mi SSW 8.1 mph - 0.01 in Fog , Snow Snow
3:19 PM 19.4 °F 9.5 °F 15.8 °F 86% 29.39 in 0.2 mi South 8.1 mph - 0.00 in Fog , Snow Snow
3:27 PM 19.4 °F 9.5 °F 15.8 °F 86% 29.39 in 0.5 mi South 8.1 mph - 0.00 in Fog , Snow Snow
3:48 PM 19.4 °F 14.3 °F 15.8 °F 86% 29.39 in 0.8 mi SSW 3.5 mph - 0.00 in Snow Light Snow
3:53 PM 19.0 °F 11.1 °F 16.0 °F 88% 29.42 in 0.8 mi South 5.8 mph - 0.00 in Snow Light Snow
4:11 PM 19.4 °F 12.8 °F 15.8 °F 86% 29.38 in 1.0 mi SSW 4.6 mph - 0.00 in Snow Light Snow
4:18 PM 19.4 °F 11.5 °F 15.8 °F 86% 29.38 in 0.8 mi SSW 5.8 mph - 0.00 in Snow Light Snow
4:31 PM 19.4 °F 12.8 °F 15.8 °F 86% 29.37 in 1.0 mi South 4.6 mph - 0.00 in Snow Light Snow
4:45 PM 19.4 °F 12.8 °F 15.8 °F 86% 29.37 in 0.8 mi South 4.6 mph - 0.00 in Snow Light Snow
4:53 PM 19.9 °F 12.1 °F 16.0 °F 85% 29.41 in 0.8 mi SSW 5.8 mph - 0.00 in Snow Light Snow
5:12 PM 19.4 °F 14.3 °F 15.8 °F 86% 29.36 in 1.5 mi South 3.5 mph - 0.00 in Snow Light Snow
5:43 PM 19.4 °F 12.8 °F 15.8 °F 86% 29.36 in 2.0 mi SSW 4.6 mph - 0.00 in Snow Light Snow
5:53 PM 19.0 °F 11.1 °F 16.0 °F 88% 29.40 in 2.0 mi South 5.8 mph - 0.00 in Snow Light Snow
6:02 PM 19.4 °F 12.8 °F 15.8 °F 86% 29.36 in 1.8 mi South 4.6 mph - 0.00 in Snow Light Snow
6:21 PM 19.4 °F 14.3 °F 15.8 °F 86% 29.36 in 2.0 mi SSW 3.5 mph - 0.01 in Snow Light Snow
6:53 PM 19.0 °F 11.1 °F 16.0 °F 88% 29.40 in 3.0 mi South 5.8 mph - 0.01 in Snow Light Snow
7:53 PM 19.0 °F 12.3 °F 16.0 °F 88% 29.39 in 4.0 mi SSW 4.6 mph - 0.00 in Snow Light Snow
8:14 PM 19.4 °F 11.5 °F 15.8 °F 86% 29.35 in 7.0 mi SSW 5.8 mph - 0.00 in   Overcast
8:31 PM 19.4 °F 11.5 °F 15.8 °F 86% 29.35 in 8.0 mi SSW 5.8 mph - 0.00 in   Overcast
8:53 PM 19.0 °F 12.3 °F 16.0 °F 88% 29.38 in 5.0 mi South 4.6 mph - 0.00 in Snow Light Snow
9:20 PM 19.4 °F 12.8 °F 15.8 °F 86% 29.34 in 10.0 mi South 4.6 mph - 0.00 in   Overcast
9:53 PM 19.9 °F 13.4 °F 16.0 °F 85% 29.38 in 9.0 mi SSW 4.6 mph - 0.00 in   Overcast
10:16 PM 19.4 °F 11.5 °F 15.8 °F 86% 29.34 in 8.0 mi SW 5.8 mph - N/A   Overcast
10:48 PM 19.4 °F 12.8 °F 15.8 °F 86% 29.34 in 7.0 mi SW 4.6 mph - N/A   Overcast
10:53 PM 19.0 °F 12.3 °F 15.1 °F 85% 29.37 in 8.0 mi SW 4.6 mph - N/A   Overcast
11:53 PM 12.9 °F 5.2 °F 10.9 °F 92% 29.40 in 5.0 mi South 4.6 mph - 0.00 in   Overcast